Regional Weather Roundup
Issued by NWS Midland/Odessa, TX

Skip options and go directly to product.
Home | Oldest Version | Next Version | Current Version | All | Text Only | Save Text | Print | Product List | Glossary On

Skip product version selection by date and time.   
831
ASUS44 KMAF 241210
RWRMAF
MIDLAND AREA WEATHER ROUNDUP
NATIONAL WEATHER SERVICE MIDLAND TX
700 AM CDT FRI OCT 24 2014

...IN SOUTHWEST TEXAS AND SOUTHEAST NEW MEXICO...

CITY           SKY/WX    TMP DP  RH WIND       PRES   REMARKS
ALPINE         CLEAR     57  54  90 SW7       30.29R
ANDREWS        FAIR      58  58  98 SW8       30.16R FOG
ARTESIA        NOT AVBL
BIG SPRING     CLOUDY    59  58  94 S5        30.17S VSB 1/4
CARLSBAD       CLEAR     55  53  93 N3        30.15R
DRYDEN           N/A     60  59  96 NW5       30.13R
FORT STOCKTON  CLEAR     60  55  83 S8        30.16R
GUAD PASS      CLEAR     58  48  69 SW10      30.29R
HOBBS          CLEAR     52  52 100 SW5       30.18  FOG
MARFA          CLEAR     48  46  93 N6        30.28R
MIDLAND AIRPK  CLEAR     60  60 100 S3        30.15S FOG
MIDLAND INTL   FOG       60  59  96 S6        30.15R VSB 1/2
ODESSA         CLEAR     60  58  92 S6        30.16R FOG
PECOS          CLEAR     55  54  96 CALM      30.14R
PRESIDIO       FAIR      63  57  81 NE3       30.16S
SEMINOLE       CLEAR     56  55  98 W5        30.17R FOG
SNYDER         FOG       55  55  99 CALM      30.15R VSB 1/4
WINK           MOCLDY    59  50  72 E5        30.13S
$$
...OTHER STATIONS IN TEXAS...

CITY           SKY/WX    TMP DP  RH WIND       PRES   REMARKS
ABILENE        CLEAR     61  59  93 SW7       30.13R
AMARILLO       CLEAR     53  50  89 SW9       30.13R
AUSTIN         CLEAR     55  54  96 CALM      30.13S
BROWNSVILLE    CLEAR     68  66  93 N5        30.07R
CORPUS CHRISTI PTCLDY    64  62  93 N3        30.10S
DALLAS FTW     MOCLDY    61  55  81 SE5       30.13R
DEL RIO        CLEAR     62  60  93 E3        30.10R
EL PASO        CLEAR     60  51  72 N5        30.20R
HOUSTON INT    CLEAR     55  52  89 CALM      30.14R
LUBBOCK        CLEAR     50  48  93 SE5       30.15R
SAN ANGELO     PTCLDY    55  54  96 CALM      30.14R FOG
SAN ANTONIO    CLEAR     62  57  83 NW3       30.13S
WACO           CLEAR     62  54  74 S6        30.14R
WICHITA FALLS  NOT AVBL
$$
...OTHER LOCATIONS IN NEW MEXICO...

CITY           SKY/WX    TMP DP  RH WIND       PRES   REMARKS
ALAMAGORDO     NOT AVBL
ALBUQUERQUE    PTCLDY    47  35  63 CALM      30.30R
CANNON AFB     CLEAR     56  53  88 W9        30.17R
CLOVIS         CLEAR     52  46  82 W7        30.19S
HOLLOMAN AFB   CLEAR     52  46  80 CALM      30.21R
ROSWELL        CLEAR     49  46  90 W5        30.17R
RUIDOSO        CLEAR     50  36  57 SW5       30.35F
SANTA FE       CLEAR     44  30  57 N8        30.30S WCI  39
TRUTH OR CONSE CLEAR     53  44  71 NW6       30.25R
TUCUMCARI      CLEAR     51  41  68 W9        30.15R
$$

USA.gov is the U.S. government's official web portal to all federal, state and local government web resources and services.